logo tempoitalia

Diretta Meteo Moscow-Domodedovo, Russialunedì 31 agosto ore 08:00

Mappa
Sereno 16 °C Molto Nuvoloso 24 Ore: T.min 14 T.max 23
Ponente Nord Km/h 7.2 Punto di rugiada: 16 °C Umidità: 100% Visibilità: 8 Km
Il sole sorge alle: 05:32 Il sole tramonta alle: 19:25
31 Agosto 2026 08:00 tempo osservato: Molto Nuvoloso Molto Nuvoloso 16 100 1018 vento: Nord N 7.2
31 Agosto 2026 07:30 tempo osservato: Molto Nuvoloso Molto Nuvoloso 15 100 1018 vento: Nord SO 10.8
31 Agosto 2026 07:00 tempo osservato: Molto Nuvoloso Molto Nuvoloso 15 100 1018 vento: Nord N 7.2
31 Agosto 2026 06:36 tempo osservato: Foschia Foschia 15 100 1018 vento: Nord SO 10.8
31 Agosto 2026 06:30 tempo osservato: Foschia Foschia 15 100 1018 vento: Nord N 7.2
31 Agosto 2026 06:00 tempo osservato: Foschia Foschia 14 100 1018 vento: Nord N 7.2
31 Agosto 2026 05:54 tempo osservato: Foschia Foschia 14 100 1018 vento: Nord N 7.2
31 Agosto 2026 05:30 tempo osservato: Nebbia a tratti Nebbia a tratti 14 100 1018 vento: Nord N 7.2
31 Agosto 2026 05:20 tempo osservato: Nebbia a tratti Nebbia a tratti 14 100 1018 vento: Nord N 7.2
31 Agosto 2026 05:15 tempo osservato: Nebbia a tratti Nebbia a tratti 14 100 1018 vento: Nord N 7.2
31 Agosto 2026 05:00 tempo osservato: Foschia Foschia 15 100 1018 vento: Nord N 7.2
31 Agosto 2026 04:43 tempo osservato: Foschia Foschia 14 100 1018 vento: Nord N 7.2
31 Agosto 2026 04:30 tempo osservato: Molto Nuvoloso Molto Nuvoloso 15 100 1018 vento: Nord N 3.6
31 Agosto 2026 04:00 tempo osservato: Molto Nuvoloso Molto Nuvoloso 15 100 1018 vento: Nord N 7.2
31 Agosto 2026 03:30 tempo osservato: Molto Nuvoloso Molto Nuvoloso 15 100 1018 vento: Nord N 7.2
31 Agosto 2026 03:00 tempo osservato: Coperto Coperto 15 100 1018 vento: Nord N 7.2
31 Agosto 2026 02:30 tempo osservato: Coperto Coperto 15 100 1018 vento: Nord S 10.8
31 Agosto 2026 02:00 tempo osservato: Pioggia Pioggia 15 100 1018 vento: Nord S 10.8
31 Agosto 2026 01:47 tempo osservato: Pioggia Pioggia 15 100 1018 vento: Nord S 10.8
31 Agosto 2026 01:30 tempo osservato: Molto Nuvoloso Molto Nuvoloso 15 100 1018 vento: Nord S/SO 10.8
31 Agosto 2026 01:00 tempo osservato: Molto Nuvoloso Molto Nuvoloso 15 100 1018 vento: Nord S/SE 10.8
31 Agosto 2026 00:30 tempo osservato: Pioggia Pioggia 15 100 1018 vento: Nord S/SE 10.8
31 Agosto 2026 00:00 tempo osservato: Pioggia Pioggia 15 100 1018 vento: Nord S/SE 10.8
30 Agosto 2026 23:30 tempo osservato: Pioggia Pioggia 15 100 1019 vento: Nord N 7.2
30 Agosto 2026 23:00 tempo osservato: Pioggia Pioggia 16 93 1019 vento: Nord S 10.8
30 Agosto 2026 22:30 tempo osservato: Pioggia Pioggia 15 100 1019 vento: Nord S/SE 10.8
30 Agosto 2026 22:00 tempo osservato: Pioggia Pioggia 15 100 1019 vento: Nord S/SE 10.8
30 Agosto 2026 21:30 tempo osservato: Pioggia Pioggia 16 93 1019 vento: Nord N 7.2
30 Agosto 2026 21:00 tempo osservato: Pioggia Pioggia 16 93 1019 vento: Nord S 10.8
30 Agosto 2026 20:30 tempo osservato: Pioggia Pioggia 16 93 1019 vento: Nord S 10.8
30 Agosto 2026 20:00 tempo osservato: Pioggia Pioggia 16 93 1019 vento: Nord S 10.8
30 Agosto 2026 19:30 tempo osservato: Pioggia Pioggia 16 93 1019 vento: Nord S 10.8
30 Agosto 2026 19:00 tempo osservato: Pioggia Pioggia 17 88 1019 vento: Nord S 14.4
30 Agosto 2026 18:30 tempo osservato: Pioggia Pioggia 17 88 1019 vento: Nord S 10.8
30 Agosto 2026 18:00 tempo osservato: Pioggia Pioggia 17 88 1020 vento: Nord S 10.8
30 Agosto 2026 17:30 tempo osservato: Pioggia Pioggia 18 77 1020 vento: Nord SO 18
30 Agosto 2026 17:00 tempo osservato: Pioggia Pioggia 20 59 1020 vento: Nord N 14.4
30 Agosto 2026 16:30 tempo osservato: Nuvoloso Nuvoloso 21 56 1020 vento: Nord S/SO 14.4
30 Agosto 2026 16:00 tempo osservato: Sereno Sereno 21 52 1020 vento: Nord S/SO 14.4
30 Agosto 2026 15:30 tempo osservato: Sereno Sereno 22 49 1020 vento: Nord S 18
30 Agosto 2026 15:00 tempo osservato: Sereno Sereno 22 49 1020 vento: Nord S 14.4
30 Agosto 2026 14:30 tempo osservato: Sereno Sereno 22 49 1020 vento: Nord S 18
30 Agosto 2026 14:00 tempo osservato: Sereno Sereno 23 43 1021 vento: Nord S 25.2
30 Agosto 2026 13:30 tempo osservato: Sereno Sereno 23 43 1021 vento: Nord S 25.2
30 Agosto 2026 13:00 tempo osservato: Sereno Sereno 23 46 1021 vento: Nord S 18
30 Agosto 2026 12:30 tempo osservato: Sereno Sereno 23 43 1021 vento: Nord S 25.2
30 Agosto 2026 12:00 tempo osservato: Sereno Sereno 22 46 1021 vento: Nord S 25.2
30 Agosto 2026 11:30 tempo osservato: Sereno Sereno 22 46 1021 vento: Nord S/SO 21.6
30 Agosto 2026 11:00 tempo osservato: Sereno Sereno 22 46 1022 vento: Nord S 21.6
30 Agosto 2026 10:30 tempo osservato: Sereno Sereno 21 49 1022 vento: Nord S 14.4
30 Agosto 2026 10:00 tempo osservato: Sereno Sereno 20 52 1022 vento: Nord S 21.6
30 Agosto 2026 09:30 tempo osservato: Sereno Sereno 19 55 1022 vento: Nord S 21.6
30 Agosto 2026 09:00 tempo osservato: Sereno Sereno 18 59 1022 vento: Nord S 18